Date String (YYYY-MM-DD hh:mm:ss) UTC,Instrument flags,Ambient pressure (hPa),Sample flow (lpm),Bypass flow (lpm),Sample temperature (°C),Ambient temperature (°C),ASC tube jacket temperature (°C),LED temperature (°C),Box temperature (°C),Sample RH (%),Span deviation,Mass concentration (μg/m³),Mass concentration (μg/m³),Mass concentration (μg/m³)
DateTimeUTC,F1_M11,P_M11,Q1_M11,Q2_M11,T1_M11,T2_M11,T3_M11,T4_M11,T5_M11,U1_M11,ZSPAN_M11,X0_M11,X2_M11,X1_M11
2022-11-12 02:00:00,,0827.1,5.00,0.00,22.6,20.9,00.0,31.5,24.4,10.2,0001.6,0016.98,0008.68,0007.78
2022-11-12 02:01:00,,0827.1,4.99,0.00,22.5,20.9,00.0,31.5,24.3,10.2,0000.8,0016.95,0008.68,0007.78
2022-11-12 02:02:00,,0827.1,5.00,0.00,22.5,20.9,00.0,31.5,24.3,10.2,0000.2,0017.06,0008.74,0007.80
2022-11-12 02:03:00,,0827.2,4.99,0.00,22.5,20.9,00.0,31.5,24.3,10.2,0000.1,0017.69,0008.72,0007.81
2022-11-12 02:04:00,,0827.2,5.00,0.00,22.5,20.8,00.0,31.4,24.3,10.2,-000.1,0018.32,0008.73,0007.82
2022-11-12 02:05:00,,0827.1,5.01,0.00,22.5,20.8,00.0,31.4,24.3,10.2,0000.2,0019.26,0008.75,0007.82
2022-11-12 02:06:00,,0827.2,5.00,0.00,22.5,20.8,00.0,31.4,24.3,10.3,0000.2,0020.08,0008.80,0007.81
2022-11-12 02:07:00,,0827.1,5.00,0.00,22.5,20.8,00.0,31.4,24.3,10.3,0000.3,0019.53,0008.84,0007.83
2022-11-12 02:08:00,,0827.1,4.99,0.00,22.4,20.8,00.0,31.4,24.3,10.3,0000.5,0019.31,0008.85,0007.84
2022-11-12 02:09:00,,0827.1,5.01,0.00,22.4,20.8,00.0,31.4,24.2,10.3,-000.1,0020.75,0008.84,0007.87
2022-11-12 02:10:00,,0827.1,5.01,0.00,22.4,20.8,00.0,31.4,24.2,10.3,-000.7,0021.02,0008.84,0007.89
2022-11-12 02:11:00,,0827.1,5.00,0.00,22.4,20.8,00.0,31.4,24.2,10.3,-000.9,0020.61,0008.83,0007.91
2022-11-12 02:12:00,,0827.1,4.99,0.00,22.4,20.7,00.0,31.3,24.2,10.3,-000.6,0021.15,0008.87,0007.93
2022-11-12 02:13:00,,0827.0,4.99,0.00,22.4,20.7,00.0,31.3,24.2,10.3,-000.2,0020.95,0008.85,0007.95
2022-11-12 02:14:00,,0827.1,5.01,0.00,22.4,20.7,00.0,31.3,24.2,10.3,-000.2,0020.48,0008.92,0007.97
2022-11-12 02:15:00,,0827.1,5.01,0.00,22.3,20.7,00.0,31.3,24.2,10.4,-000.2,0019.89,0008.94,0007.98
2022-11-12 02:16:00,,0827.1,5.00,0.00,22.3,20.7,00.0,31.3,24.1,10.4,-000.4,0019.28,0008.98,0007.99
2022-11-12 02:17:00,,0827.3,4.99,0.00,22.3,20.7,00.0,31.3,24.1,10.4,-000.6,0018.59,0008.97,0008.02
2022-11-12 02:18:00,,0827.4,4.99,0.00,22.3,20.7,00.0,31.2,24.1,10.3,-000.6,0018.51,0008.94,0008.02
2022-11-12 02:19:00,,0827.4,5.00,0.00,22.3,20.7,00.0,31.2,24.1,10.3,-000.7,0018.33,0008.94,0008.03
2022-11-12 02:20:00,,0827.3,5.00,0.00,22.3,20.7,00.0,31.2,24.1,10.3,-000.6,0016.34,0008.95,0008.03
2022-11-12 02:21:00,,0827.4,5.00,0.00,22.3,20.8,00.0,31.2,24.2,10.3,-000.5,0016.93,0008.97,0008.02
2022-11-12 02:22:00,,0827.4,5.00,0.00,22.4,21.5,00.0,31.2,24.4,10.3,0000.1,0017.63,0008.98,0008.01
2022-11-12 02:23:00,,0827.4,4.99,0.00,22.5,22.3,00.0,31.2,24.6,10.2,0000.0,0017.09,0008.97,0008.00
2022-11-12 02:24:00,,0827.4,4.99,0.00,22.6,22.4,00.0,31.2,24.7,10.2,0000.2,0017.64,0008.99,0007.99
2022-11-12 02:25:00,,0827.1,5.01,0.00,22.6,22.1,00.0,31.2,24.6,10.2,-000.1,0018.24,0008.98,0007.97
2022-11-12 02:26:00,,0827.3,5.00,0.00,22.6,21.9,00.0,31.3,24.6,10.1,-000.1,0018.28,0009.00,0007.98
2022-11-12 02:27:00,,0827.1,4.99,0.00,22.6,21.7,00.0,31.3,24.5,10.1,0000.0,0017.78,0008.96,0007.98
2022-11-12 02:28:00,,0827.1,5.01,0.00,22.6,21.6,00.0,31.3,24.5,10.1,0000.1,0017.82,0008.95,0007.97
2022-11-12 02:29:00,,0827.0,5.01,0.00,22.6,21.5,00.0,31.3,24.5,10.1,-000.3,0017.19,0008.93,0007.96
2022-11-12 02:30:00,,0827.1,5.00,0.00,22.6,21.4,00.0,31.3,24.5,10.2,0000.1,0017.52,0008.95,0007.95
2022-11-12 02:31:00,,0827.1,5.00,0.00,22.6,21.3,00.0,31.3,24.5,10.2,0000.6,0017.50,0008.92,0007.95
2022-11-12 02:32:00,,0827.0,5.00,0.00,22.6,21.2,00.0,31.4,24.4,10.1,0001.3,0016.54,0008.87,0007.94
2022-11-12 02:33:00,,0826.9,4.98,0.00,22.6,21.2,00.0,31.4,24.4,10.2,0000.7,0015.95,0008.90,0007.94
2022-11-12 02:34:00,,0826.9,5.00,0.00,22.5,21.1,00.0,31.4,24.4,10.2,0000.4,0015.84,0008.90,0007.94
2022-11-12 02:35:00,,0826.9,5.01,0.00,22.5,21.1,00.0,31.4,24.4,10.2,0000.5,0015.18,0008.89,0007.96
2022-11-12 02:36:00,,0826.9,5.01,0.00,22.5,21.1,00.0,31.4,24.3,10.2,0000.7,0014.48,0008.89,0007.96
2022-11-12 02:37:00,,0827.0,5.00,0.00,22.5,21.0,00.0,31.4,24.3,10.2,0000.8,0014.88,0008.90,0007.97
2022-11-12 02:38:00,,0826.9,5.00,0.00,22.5,21.0,00.0,31.4,24.3,10.2,0000.5,0015.37,0008.88,0007.97
2022-11-12 02:39:00,,0826.9,4.99,0.00,22.5,21.0,00.0,31.3,24.3,10.2,0000.6,0016.45,0008.89,0007.98
2022-11-12 02:40:00,,0826.9,5.00,0.00,22.4,21.0,00.0,31.3,24.3,10.2,0001.2,0016.88,0008.89,0007.99
2022-11-12 02:41:00,,0826.9,5.01,0.00,22.4,21.0,00.0,31.3,24.3,10.2,0001.0,0016.88,0008.88,0007.99
2022-11-12 02:42:00,,0827.0,5.00,0.00,22.4,21.0,00.0,31.3,24.2,10.2,0000.7,0017.05,0008.92,0008.01
2022-11-12 02:43:00,,0826.9,5.00,0.00,22.4,21.0,00.0,31.3,24.3,10.2,-000.5,0017.61,0008.96,0008.01
2022-11-12 02:44:00,,0826.9,5.01,0.00,22.4,20.9,00.0,31.3,24.3,10.2,-000.5,0017.65,0008.94,0008.01
2022-11-12 02:45:00,,0827.2,4.99,0.00,22.4,20.9,00.0,31.3,24.3,10.2,-000.7,0017.41,0008.93,0008.01
2022-11-12 02:46:00,,0826.9,5.00,0.00,22.4,20.9,00.0,31.3,24.2,10.2,-000.8,0017.27,0008.94,0008.01
2022-11-12 02:47:00,,0827.0,5.00,0.00,22.4,20.9,00.0,31.3,24.2,10.2,-000.7,0017.14,0008.89,0008.00
2022-11-12 02:48:00,,0827.2,5.01,0.00,22.4,20.9,00.0,31.3,24.2,10.3,-000.8,0016.71,0008.88,0007.99
2022-11-12 02:49:00,,0827.1,5.00,0.00,22.4,20.9,00.0,31.3,24.2,10.2,-000.7,0016.15,0008.91,0008.01
2022-11-12 02:50:00,,0826.9,5.00,0.00,22.4,20.9,00.0,31.2,24.2,10.2,-001.2,0015.01,0008.92,0008.01
2022-11-12 02:51:00,,0827.1,4.99,0.00,22.4,20.9,00.0,31.2,24.2,10.3,-001.5,0014.49,0008.92,0008.00
2022-11-12 02:52:00,,0826.9,5.01,0.00,22.3,20.9,00.0,31.2,24.2,10.2,-001.3,0013.95,0008.90,0008.01
2022-11-12 02:53:00,,0827.1,5.01,0.00,22.3,20.8,00.0,31.2,24.2,10.2,-001.4,0014.12,0008.86,0008.00
2022-11-12 02:54:00,,0827.0,5.00,0.00,22.3,20.8,00.0,31.2,24.2,10.2,-001.4,0013.81,0008.87,0008.02
2022-11-12 02:55:00,,0827.0,5.01,0.00,22.3,21.0,00.0,31.2,24.3,10.2,-001.5,0014.05,0008.93,0008.02
2022-11-12 02:56:00,,0827.0,4.99,0.00,22.4,21.8,00.0,31.2,24.4,10.2,-001.3,0014.33,0009.00,0008.04
2022-11-12 02:57:00,,0827.4,4.99,0.00,22.5,22.5,00.0,31.2,24.6,10.2,-001.4,0015.32,0009.01,0008.04
2022-11-12 02:58:00,,0827.6,5.00,0.00,22.6,22.3,00.0,31.2,24.6,10.1,-001.7,0016.59,0009.06,0008.06
2022-11-12 02:59:00,,0827.4,5.00,0.00,22.6,22.0,00.0,31.3,24.6,10.1,-001.7,0016.94,0009.06,0008.08
